Overview Statistics Trail Chart Weather Telemetry Raw packets
 

This is the latest recevied weather packets stored in our database for station/object 4S6DRJ-13. If no packets are shown the sender has not sent any weather packets the latest 10 day(s).

<< 108 109 110 111 112 113 114 >>
Time Temp. Humidity Pressure Rain* Wind** Luminosity Snow
1788294073 27.78° C 83% 1009.5 hPa 0 mm 0 m/s 0 W/m² -
1788294012 27.78° C 83% 1009.4 hPa 0 mm 0.89 m/s, 235° 0 W/m² -
1788293951 27.78° C 83% 1009.4 hPa 0 mm 0 m/s 0 W/m² -
1788293891 27.78° C 83% 1009.5 hPa 0 mm 0 m/s 0 W/m² -
1788293829 27.78° C 83% 1009.5 hPa 0 mm 0.45 m/s, 267° 0 W/m² -
1788293768 27.78° C 83% 1009.4 hPa 0 mm 0.45 m/s, 255° 0 W/m² -
1788293707 27.78° C 83% 1009.4 hPa 0 mm 0.89 m/s, 285° 0 W/m² -
1788293646 27.78° C 83% 1009.5 hPa 0 mm 0.45 m/s, 294° 0 W/m² -
1788293585 27.78° C 83% 1009.5 hPa 0 mm 0 m/s 0 W/m² -
1788293524 27.78° C 83% 1009.6 hPa 0 mm 0 m/s 0 W/m² -
1788293463 27.78° C 83% 1009.7 hPa 0 mm 0.89 m/s, 282° 0 W/m² -
1788293402 27.78° C 83% 1009.6 hPa 0 mm 0.45 m/s, 226° 0 W/m² -
1788293341 27.78° C 83% 1009.6 hPa 0 mm 0.45 m/s, 80° 0 W/m² -
1788293280 27.78° C 83% 1009.6 hPa 0 mm 0 m/s 0 W/m² -
1788293219 27.78° C 83% 1009.5 hPa 0 mm 0 m/s 0 W/m² -
1788293158 27.78° C 83% 1009.5 hPa 0 mm 0 m/s 0 W/m² -
1788293097 27.78° C 83% 1009.6 hPa 0 mm 0.45 m/s, 191° 0 W/m² -
1788293036 27.78° C 83% 1009.5 hPa 0 mm 0 m/s 0 W/m² -
1788292975 27.78° C 83% 1009.6 hPa 0 mm 0.45 m/s, 209° 0 W/m² -
1788292914 27.78° C 83% 1009.8 hPa 0 mm 0 m/s 0 W/m² -
1788292854 27.78° C 83% 1009.7 hPa 0 mm 0 m/s 0 W/m² -
1788292792 27.78° C 83% 1009.7 hPa 0 mm 0.89 m/s, 228° 0 W/m² -
1788292731 27.78° C 83% 1009.7 hPa 0 mm 0.45 m/s, 238° 0 W/m² -
1788292670 27.78° C 83% 1009.8 hPa 0 mm 1.34 m/s, 205° 0 W/m² -
1788292609 27.78° C 83% 1009.6 hPa 0 mm 0.45 m/s, 196° 0 W/m² -

* Rain latest hour (hover to see other rain measurements)
** Current wind speed in m/s (hover to see current wind gust speed)